TimeEDT,TemperatureF,Dew PointF,Humidity,Sea Level PressureIn,VisibilityMPH,Wind Direction,Wind SpeedMPH,Gust SpeedMPH,PrecipitationIn,Events,Conditions,WindDirDegrees,DateUTC
12:15 AM,69.8,62.6,78,30.21,10.0,Calm,Calm,-,N/A,Rain,Light Rain,0,2012-10-04 04:15:00
12:35 AM,69.8,62.6,78,30.21,10.0,Calm,Calm,-,N/A,Rain,Light Rain,0,2012-10-04 04:35:00
12:55 AM,69.8,62.6,78,30.21,10.0,WSW,3.5,-,N/A,Rain,Light Rain,250,2012-10-04 04:55:00
1:15 AM,69.8,64.4,83,30.21,10.0,WSW,4.6,-,N/A,,Scattered Clouds,250,2012-10-04 05:15:00
1:35 AM,68.0,64.4,88,30.22,10.0,Calm,Calm,-,N/A,Rain,Light Rain,0,2012-10-04 05:35:00
1:55 AM,68.0,64.4,88,30.21,10.0,Calm,Calm,-,N/A,Rain,Light Rain,0,2012-10-04 05:55:00
2:15 AM,66.2,64.4,94,30.21,10.0,Calm,Calm,-,0.01,,Scattered Clouds,0,2012-10-04 06:15:00
2:35 AM,66.2,66.2,100,30.20,10.0,Calm,Calm,-,0.01,Rain,Light Rain,0,2012-10-04 06:35:00
2:55 AM,66.2,66.2,100,30.20,10.0,Calm,Calm,-,N/A,,Clear,0,2012-10-04 06:55:00
3:15 AM,66.2,66.2,100,30.19,10.0,Calm,Calm,-,N/A,,Clear,0,2012-10-04 07:15:00
3:35 AM,66.2,66.2,100,30.20,10.0,SSW,3.5,-,N/A,,Clear,210,2012-10-04 07:35:00
3:55 AM,66.2,66.2,100,30.19,10.0,Calm,Calm,-,N/A,,Clear,0,2012-10-04 07:55:00
4:15 AM,66.2,66.2,100,30.19,10.0,Calm,Calm,-,N/A,,Clear,0,2012-10-04 08:15:00
4:35 AM,66.2,66.2,100,30.19,10.0,Calm,Calm,-,N/A,,Clear,0,2012-10-04 08:35:00
4:55 AM,66.2,66.2,100,30.20,10.0,Calm,Calm,-,N/A,,Clear,0,2012-10-04 08:55:00
5:15 AM,66.2,66.2,100,30.20,10.0,Calm,Calm,-,N/A,,Clear,0,2012-10-04 09:15:00
5:35 AM,66.2,66.2,100,30.21,10.0,Calm,Calm,-,N/A,,Clear,0,2012-10-04 09:35:00
5:55 AM,66.2,66.2,100,30.21,10.0,South,3.5,-,N/A,,Clear,190,2012-10-04 09:55:00
6:15 AM,66.2,66.2,100,30.22,10.0,SSW,3.5,-,N/A,,Clear,210,2012-10-04 10:15:00
6:35 AM,66.2,66.2,100,30.22,10.0,Calm,Calm,-,N/A,,Clear,0,2012-10-04 10:35:00
6:55 AM,66.2,66.2,100,30.22,10.0,West,3.5,-,N/A,,Clear,260,2012-10-04 10:55:00
7:15 AM,66.2,64.4,94,30.22,10.0,Calm,Calm,-,N/A,,Clear,0,2012-10-04 11:15:00
7:35 AM,66.2,64.4,94,30.22,10.0,Calm,Calm,-,N/A,,Clear,0,2012-10-04 11:35:00
7:55 AM,66.2,64.4,94,30.23,10.0,Calm,Calm,-,N/A,,Clear,0,2012-10-04 11:55:00
8:15 AM,66.2,66.2,100,30.23,10.0,Calm,Calm,-,N/A,,Clear,0,2012-10-04 12:15:00
8:35 AM,66.2,66.2,100,30.24,10.0,Calm,Calm,-,N/A,,Clear,0,2012-10-04 12:35:00
8:55 AM,66.2,66.2,100,30.25,10.0,Calm,Calm,-,N/A,,Clear,0,2012-10-04 12:55:00
9:15 AM,66.2,66.2,100,30.25,10.0,Calm,Calm,-,N/A,,Scattered Clouds,0,2012-10-04 13:15:00
9:35 AM,68.0,64.4,88,30.25,10.0,Calm,Calm,-,N/A,,Scattered Clouds,0,2012-10-04 13:35:00
9:55 AM,68.0,64.4,88,30.26,10.0,Calm,Calm,-,N/A,,Scattered Clouds,0,2012-10-04 13:55:00
10:15 AM,69.8,64.4,83,30.25,10.0,Calm,Calm,-,N/A,,Clear,0,2012-10-04 14:15:00
10:35 AM,69.8,64.4,83,30.26,10.0,Calm,Calm,-,N/A,,Clear,0,2012-10-04 14:35:00
10:55 AM,71.6,64.4,78,30.26,10.0,Calm,Calm,-,N/A,,Clear,0,2012-10-04 14:55:00
11:15 AM,71.6,64.4,78,30.26,10.0,Calm,Calm,-,N/A,,Clear,0,2012-10-04 15:15:00
11:35 AM,73.4,64.4,73,30.26,10.0,Calm,Calm,-,N/A,,Clear,0,2012-10-04 15:35:00
11:55 AM,73.4,62.6,69,30.26,10.0,WNW,3.5,-,N/A,,Clear,290,2012-10-04 15:55:00
12:15 PM,73.4,60.8,65,30.25,10.0,WNW,6.9,-,N/A,,Clear,300,2012-10-04 16:15:00
12:35 PM,75.2,57.2,53,30.25,10.0,NW,6.9,-,N/A,,Clear,310,2012-10-04 16:35:00
12:55 PM,75.2,59.0,57,30.24,10.0,North,5.8,-,N/A,,Clear,350,2012-10-04 16:55:00
1:15 PM,77.0,55.4,47,30.23,10.0,WNW,4.6,-,N/A,,Clear,300,2012-10-04 17:15:00
1:35 PM,80.6,57.2,45,30.23,10.0,Calm,Calm,-,N/A,,Clear,0,2012-10-04 17:35:00
1:55 PM,78.8,57.2,47,30.22,10.0,NW,8.1,-,N/A,,Clear,310,2012-10-04 17:55:00
2:35 PM,80.6,55.4,42,30.20,10.0,Calm,Calm,-,N/A,,Scattered Clouds,0,2012-10-04 18:35:00
2:55 PM,78.8,57.2,47,30.20,10.0,Calm,Calm,-,N/A,,Clear,0,2012-10-04 18:55:00
3:15 PM,80.6,55.4,42,30.20,10.0,Calm,Calm,-,N/A,,Scattered Clouds,0,2012-10-04 19:15:00
3:35 PM,80.6,55.4,42,30.20,10.0,Calm,Calm,-,N/A,,Scattered Clouds,0,2012-10-04 19:35:00
3:55 PM,78.8,59.0,51,30.20,10.0,Calm,Calm,-,N/A,,Clear,0,2012-10-04 19:55:00
4:15 PM,78.8,57.2,47,30.19,10.0,Calm,Calm,-,N/A,,Clear,0,2012-10-04 20:15:00
4:35 PM,78.8,57.2,47,30.19,10.0,Calm,Calm,-,N/A,,Clear,0,2012-10-04 20:35:00
4:55 PM,80.6,55.4,42,30.19,10.0,NNW,3.5,-,N/A,,Clear,340,2012-10-04 20:55:00
5:15 PM,80.6,55.4,42,30.19,10.0,NNW,4.6,-,N/A,,Clear,330,2012-10-04 21:15:00
5:35 PM,75.2,60.8,61,30.19,10.0,Calm,Calm,-,N/A,,Scattered Clouds,0,2012-10-04 21:35:00
5:55 PM,77.0,62.6,61,30.19,10.0,Calm,Calm,-,N/A,,Scattered Clouds,0,2012-10-04 21:55:00
6:15 PM,75.2,62.6,65,30.19,10.0,Calm,Calm,-,N/A,,Clear,0,2012-10-04 22:15:00
6:35 PM,71.6,62.6,73,30.19,10.0,Calm,Calm,-,N/A,,Clear,0,2012-10-04 22:35:00
6:55 PM,68.0,62.6,83,30.20,10.0,Calm,Calm,-,N/A,,Clear,0,2012-10-04 22:55:00
7:15 PM,66.2,62.6,88,30.20,10.0,Calm,Calm,-,N/A,,Clear,0,2012-10-04 23:15:00
7:35 PM,64.4,60.8,88,30.20,10.0,Calm,Calm,-,N/A,,Clear,0,2012-10-04 23:35:00
7:55 PM,62.6,62.6,100,30.20,10.0,Calm,Calm,-,N/A,,Clear,0,2012-10-04 23:55:00
8:15 PM,62.6,62.6,100,30.20,10.0,Calm,Calm,-,N/A,,Clear,0,2012-10-05 00:15:00
8:35 PM,62.6,62.6,100,30.21,10.0,Calm,Calm,-,N/A,,Clear,0,2012-10-05 00:35:00
8:55 PM,62.6,62.6,100,30.21,10.0,Calm,Calm,-,N/A,,Clear,0,2012-10-05 00:55:00
9:15 PM,62.6,62.6,100,30.22,10.0,Calm,Calm,-,N/A,,Clear,0,2012-10-05 01:15:00
9:35 PM,60.8,60.8,100,30.22,7.0,Calm,Calm,-,N/A,,Clear,0,2012-10-05 01:35:00
9:55 PM,59.0,59.0,100,30.22,5.0,Calm,Calm,-,N/A,,Clear,0,2012-10-05 01:55:00
10:15 PM,60.8,60.8,100,30.22,2.0,Calm,Calm,-,N/A,,Clear,0,2012-10-05 02:15:00
10:35 PM,59.0,59.0,100,30.23,5.0,Calm,Calm,-,N/A,,Clear,0,2012-10-05 02:35:00
10:55 PM,57.2,57.2,100,30.24,4.0,Calm,Calm,-,N/A,,Clear,0,2012-10-05 02:55:00
11:15 PM,57.2,57.2,100,30.24,1.5,Calm,Calm,-,N/A,,Mist,0,2012-10-05 03:15:00
11:35 PM,57.2,57.2,100,30.24,2.5,Calm,Calm,-,N/A,,Clear,0,2012-10-05 03:35:00
11:55 PM,55.4,55.4,100,30.24,2.0,Calm,Calm,-,N/A,,Clear,0,2012-10-05 03:55:00